Location: 5810 Zion Rd, Cleves, OH 45002, USA
(39.1922°N, 84.7113°W)
Time: 03:06:56
(UTC-05:00)

Vanguard 3 - Pass Details

Date: 14 December 2019
Orbit: 508 x 3263 km, 33.3° (Epoch: 18 January)

Event Time Altitude Azimuth Distance (km) Brightness Sun altitude
Rises 09:01:59 0° 257° (WSW) 3,642 10.2 10.4°
Reaches altitude 10° 09:04:07 10° 253° (WSW) 2,939 9.7 10.7°
Maximum altitude 09:11:25 63° 174° (S) 1,745 9.4 11.8°
Drops below altitude 10° 09:24:43 10° 98° (E) 5,128 12.2 13.6°
Sets 09:29:41 0° 96° (E) 6,523 12.6 14.3°
